Location: Mana�l
(15.0115°N, 12.5022°W)
Time: 12:17:08
(UTC+00:00)

Cosmos 1371 Rocket - Pass Details

Date: 07 June 2020
Orbit: 754 x 789 km, 74.0° (Epoch: 05 July)

Event Time Altitude Azimuth Distance (km) Brightness Sun altitude
Rises 05:51:53 0° 350° (N) 3,209 7.4 -6.8°
Reaches altitude 10° 05:54:15 10° 353° (N) 2,287 6.7 -6.3°
Maximum altitude 05:59:25 70° 76° (ENE) 812 4.4 -5.2°
Drops below altitude 10° 06:04:37 10° 160° (SSE) 2,307 6.4 -4.1°
Sets 06:07:01 0° 162° (SSE) 3,238 7.2 -3.5°
